{"data":{"norad_id":28369,"intl_designator":"2004-025D","name":"SAUDICOMSAT 1","alt_names":[],"object_type":"PAYLOAD","status":"ACTIVE","operator":null,"country":"SAUD","launch_date":"2004-06-29","launch_site_code":"TYMSC","launch_vehicle":null,"mission":null,"orbit_class":"UNKNOWN","rcs_meters":0.0485,"size_class":null,"mass_kg":null,"dimensions":null,"purposes":[],"wikipedia_slug":null,"has_3d_model":false,"image_url":null,"decayed_at":null,"tle_current":{"epoch":"2026-09-19T17:55:24.859200Z","epoch_age_seconds":79563,"freshness":"FRESH","line1":"1 28369U 04025D   26262.74681550  .00000188  00000+0  54082-4 0  9992","line2":"2 28369  98.5791 275.4429 0033337  93.7691 266.7319 14.55528038177882","mean_motion":14.55528038,"eccentricity":0.0033337,"inclination_deg":98.5791,"raan_deg":275.4429,"arg_perigee_deg":93.7691,"mean_anomaly_deg":266.7319,"bstar":5.4082e-5,"rev_number":17788,"period_min":98.933168060346,"perigee_km":684.02861519603,"apogee_km":731.27239480688,"semimajor_km":7085.7875050015,"source":"CELESTRAK","updated_at":"2026-09-20T09:00:13.596848Z"}}}